星链-32923 (STARLINK-32923)

导读

STARLINK-32923是美国SpaceX星链星座的卫星,于2025年2月23日发射,星链计划旨在构建全球卫星互联网星座,为全球提供高速低延迟网络服务。该卫星延续星链技术设计,参与低轨星座组网,进一步拓展星链系统的覆盖范围与服务能力,是美国低轨通信星座部署的一环。

基本信息
目录编号:
63097
目录名称:
STARLINK-32923
国际标识:
2025-037W
轨道中心:
EARTH
卫星名称:
星链-32923
卫星全名:
星链-32923 (STARLINK-32923)
卫星状态:
在轨 (已飞行476 天)
发射日期:
2025-02-23 UTC
国别 :
美国 (US)
星等 :
--
轨道信息
数据来源 国际轨道数据 AOE轨道数据
星历时间 2026-06-14T05:04:36+0800
10小时前
查看轨道信息
2026-06-14T04:00:00+0800
11小时前
查看轨道信息
半长轴 6950.134km 6950.128km
偏心率 0.0002175 0.0002919
轨道倾角 70.004° 70.000°
近地点辐角 215.818° 273.293°
升交点赤经 111.795° 111.901°
平近点角 144.284° 204.884°
近地点 570.485km 569.962km
远地点 573.509km 574.02km
周期 96.106分钟 96.106分钟
每日圈数 14.983491 14.983511
详细信息
固有亮度:
5
最大亮度:
2.5
卫星平台:
Starlink V1.0
覆盖范围:
全球
运营商:
太空探索技术公司
运营商所在国:
美国
制造商(研发单位):
太空探索技术公司
制造商所在国:
美国
使用方式:
暂无
卫星简介
Starlink 计划是 SpaceX 推出的全球卫星互联网项目,通过发射低轨道卫星,为全球尤其是偏远地区提供高速、低延迟的互联网服务。自 2019 年起,Starlink 已部署数千颗卫星,旨在缩小全球数字鸿沟,推动互联网普及。该项目还为军事、航空等行业提供通信支持,带来广泛经济效益。
2D轨道图
3D轨道图
轨道高度分析图
轨道倾角分析图
轨道综合分析图
查看轨道综合分析图